Location: Dob?e?
(49.9411°N, 15.1496°E)
Time: 22:30:29
(UTC+00:00)

GEOS 3 Rocket - Pass Details

Date: 07 June 2020
Orbit: 772 x 847 km, 115.0° (Epoch: 08 July)

Event Time Altitude Azimuth Distance (km) Brightness Sun altitude
Rises 01:49:34 0° 165° (SSE) 3,290 6.4 -8.0°
Reaches altitude 10° 01:52:01 10° 174° (S) 2,375 5.6 -7.7°
Maximum altitude 01:56:42 35° 239° (WSW) 1,304 4.2 -7.2°
Drops below altitude 10° 02:01:30 10° 304° (NW) 2,433 6.0 -6.7°
Sets 02:04:03 0° 314° (NW) 3,382 6.9 -6.5°
